Medford, OR

7:50 AM PDT on September 25, 2017 (GMT -0700)
Rogue Valley International-Medford

Weather History for KMFR - March, 2012

Change the Weather History Date:

Friday, March 16, 2012

  Actual Average Record
Temperature  
Mean Temperature 47 °F 48 °F  
Max Temperature 52 °F 60 °F 80 °F (1947)
Min Temperature 41 °F 37 °F 21 °F (1911)
Degree Days  
Heating Degree Days 18 17  
Month to date heating degree days 320 283  
Since 1 July heating degree days 3514 3397  
Cooling Degree Days 0 0  
Month to date cooling degree days 0 0  
Year to date cooling degree days 0 0  
Moisture  
Dew Point 39 °F    
Average Humidity 73    
Maximum Humidity 96    
Minimum Humidity 49    
Precipitation  
Precipitation 0.44 in 0.05 in 0.58 in (1971)
Month to date precipitation 1.73 0.92  
Year to date precipitation 6.68 5.36  
Snow  
Snow 0.00 in 0.00 in - ()
Month to date snowfall 0.2 0.3  
Since 1 July snowfall 2.6 3.9  
Snow Depth 0.00 in    
Sea Level Pressure  
Sea Level Pressure 29.63 in    
Wind  
Wind Speed 6 mph (WNW)    
Max Wind Speed 28 mph    
Max Gust Speed 36 mph    
Visibility 9 miles    
Events Rain    
T = Trace of Precipitation, MM = Missing Value Source: NWS Daily Summary

Daily Weather History Graph

Daily Weather History Graph

Search for Another Location

Airport or City:

Trip Planner

Search our weather history database for the weather conditions in past years. The results will help you decide how hot, cold, wet, or windy it might be!

Date:

Astronomy

Mar. 16, 2012 Rise Set
Actual Time 7:20 AM PDT 7:19 PM PDT
Civil Twilight 6:52 AM PDT 7:47 PM PDT
Nautical Twilight 6:20 AM PDT 8:20 PM PDT
Astronomical Twilight 5:46 AM PDT 8:53 PM PDT
Moon 3:49 AM PDT (3/16) 1:40 PM PDT (3/16)
Length of Visible Light 12h 55m
Length of Day
11h 59m
Waning Crescent, 32% of the Moon is Illuminated
Mar 16
Waning Crescent
Mar 22
New
Mar 30
First Quarter
Apr 6
Full
Apr 13
Last Quarter

Hourly Weather History & Observations

Time (PDT) Temp. Windchill Dew Point Humidity Pressure Visibility Wind Dir Wind Speed Gust Speed Precip Events Conditions
12:53 AM 45.0 °F 43.5 °F 42.1 °F 90% 29.81 in 10.0 mi NE 3.5 mph - 0.00 in   Overcast
1:53 AM 44.1 °F 42.5 °F 41.0 °F 89% 29.80 in 10.0 mi NNE 3.5 mph - N/A   Mostly Cloudy
2:53 AM 43.0 °F 40.3 °F 41.0 °F 93% 29.78 in 10.0 mi North 4.6 mph - N/A   Scattered Clouds
3:53 AM 44.1 °F 39.5 °F 39.9 °F 85% 29.79 in 10.0 mi NW 8.1 mph - 0.00 in Rain Light Rain
4:08 AM 42.8 °F 35.8 °F 41.0 °F 93% 29.81 in 7.0 mi NW 13.8 mph - 0.01 in Rain Rain
4:53 AM 42.1 °F 37.7 °F 39.0 °F 89% 29.83 in 5.0 mi SE 6.9 mph - 0.19 in Rain Rain
5:53 AM 42.1 °F 39.2 °F 37.9 °F 85% 29.84 in 10.0 mi SSW 4.6 mph - 0.04 in Rain Light Rain
6:53 AM 42.1 °F 38.4 °F 37.0 °F 82% 29.83 in 10.0 mi WSW 5.8 mph - 0.00 in   Overcast
7:53 AM 42.1 °F - 39.0 °F 89% 29.83 in 10.0 mi Calm Calm - N/A   Overcast
8:53 AM 42.1 °F 40.2 °F 39.0 °F 89% 29.83 in 10.0 mi NE 3.5 mph - 0.00 in   Overcast
9:53 AM 42.8 °F - 39.2 °F 87% 29.79 in 10.0 mi Calm Calm - N/A   Mostly Cloudy
10:53 AM 45.0 °F - 39.0 °F 80% 29.76 in 10.0 mi Calm Calm - N/A   Overcast
11:53 AM 48.0 °F - 39.9 °F 74% 29.73 in 10.0 mi North 3.5 mph - N/A   Mostly Cloudy
12:53 PM 52.0 °F - 42.1 °F 69% 29.66 in 10.0 mi Variable 4.6 mph - N/A   Mostly Cloudy
1:53 PM 51.1 °F - 39.9 °F 66% 29.59 in 10.0 mi North 3.5 mph - N/A   Mostly Cloudy
2:53 PM 48.9 °F - 41.0 °F 74% 29.53 in 9.0 mi NNW 4.6 mph - 0.02 in Rain Light Rain
3:53 PM 46.9 °F - 43.0 °F 86% 29.50 in 6.0 mi WNW 4.6 mph - 0.05 in Rain Light Rain
4:53 PM 46.9 °F - 44.1 °F 90% 29.42 in 10.0 mi Calm Calm - 0.04 in Rain Light Rain
5:04 PM 46.4 °F - 44.6 °F 93% 29.41 in 10.0 mi Calm Calm - 0.00 in Rain Light Rain
5:28 PM 46.4 °F 40.7 °F 42.8 °F 87% 29.44 in 5.0 mi West 12.7 mph 20.7 mph 0.01 in Rain Rain
5:33 PM 46.4 °F 41.9 °F 42.8 °F 87% 29.43 in 2.5 mi NW 9.2 mph - 0.03 in Rain Heavy Rain
5:53 PM 46.0 °F - 43.0 °F 89% 29.44 in 2.0 mi Calm Calm - 0.09 in Rain Light Rain
6:00 PM 46.4 °F - 42.8 °F 87% 29.42 in 7.0 mi Calm Calm - 0.01 in Rain Light Rain
6:53 PM 46.0 °F 42.5 °F 43.0 °F 89% 29.45 in 10.0 mi NW 6.9 mph - 0.01 in   Overcast
7:53 PM 46.0 °F 39.6 °F 33.1 °F 61% 29.45 in 10.0 mi SW 15.0 mph 19.6 mph 0.00 in   Scattered Clouds
8:53 PM 46.0 °F 39.9 °F 28.9 °F 51% 29.46 in 10.0 mi SSW 13.8 mph 18.4 mph N/A   Clear
9:53 PM 46.0 °F 38.5 °F 28.0 °F 50% 29.47 in 10.0 mi South 19.6 mph 27.6 mph N/A   Clear
10:53 PM 45.0 °F 39.7 °F 30.0 °F 56% 29.53 in 10.0 mi SW 10.4 mph - 0.00 in Rain Light Rain
11:53 PM 42.1 °F 40.2 °F 30.9 °F 65% 29.57 in 10.0 mi SSW 3.5 mph - 0.00 in   Mostly Cloudy